Time,TemperatureF,DewpointF,PressureIn,WindDirection,WindDirectionDegrees,WindSpeedMPH,WindSpeedGustMPH,Humidity,HourlyPrecipIn,Conditions,Clouds,dailyrainin,SoftwareType,DateUTC
2013-06-24 00:13:00,56.7,54.0,29.77,SW,227,0.0,0.0,91,0.00,,,0.00,weatherlink.com 1.10,2013-06-24 07:13:00,
2013-06-24 00:28:00,56.7,54.0,29.77,SW,227,0.0,0.0,91,0.00,,,0.00,weatherlink.com 1.10,2013-06-24 07:28:00,
2013-06-24 00:43:00,56.6,54.0,29.77,SW,227,0.0,0.0,91,0.00,,,0.00,weatherlink.com 1.10,2013-06-24 07:43:00,
2013-06-24 00:58:00,56.4,54.0,29.77,SW,227,0.0,0.0,91,0.00,,,0.00,weatherlink.com 1.10,2013-06-24 07:58:00,
2013-06-24 01:13:00,56.3,54.0,29.76,SW,227,0.0,0.0,91,0.00,,,0.00,weatherlink.com 1.10,2013-06-24 08:13:00,
2013-06-24 01:28:00,56.1,54.0,29.77,WSW,250,0.0,3.0,91,0.00,,,0.00,weatherlink.com 1.10,2013-06-24 08:28:00,
2013-06-24 01:43:00,56.2,54.0,29.77,WSW,250,0.0,0.0,91,0.00,,,0.00,weatherlink.com 1.10,2013-06-24 08:43:00,
2013-06-24 01:58:00,56.3,54.0,29.77,WNW,294,2.0,5.0,90,0.00,,,0.00,weatherlink.com 1.10,2013-06-24 08:58:00,
2013-06-24 02:13:00,56.3,54.0,29.76,West,265,0.0,3.0,90,0.00,,,0.00,weatherlink.com 1.10,2013-06-24 09:13:00,
2013-06-24 02:28:00,56.3,54.0,29.76,West,271,0.0,0.0,90,0.00,,,0.00,weatherlink.com 1.10,2013-06-24 09:28:00,
2013-06-24 02:43:00,56.1,54.0,29.75,West,271,0.0,0.0,91,0.00,,,0.00,weatherlink.com 1.10,2013-06-24 09:43:00,
2013-06-24 02:58:00,56.0,54.0,29.75,West,271,0.0,1.0,91,0.00,,,0.00,weatherlink.com 1.10,2013-06-24 09:58:00,
2013-06-24 03:13:00,56.1,54.0,29.76,West,265,0.0,1.0,91,0.00,,,0.00,weatherlink.com 1.10,2013-06-24 10:13:00,
2013-06-24 03:28:00,56.1,53.0,29.75,West,269,0.0,3.0,90,0.00,,,0.00,weatherlink.com 1.10,2013-06-24 10:28:00,
2013-06-24 03:43:00,56.2,54.0,29.75,West,268,0.0,1.0,91,0.00,,,0.00,weatherlink.com 1.10,2013-06-24 10:43:00,
2013-06-24 03:58:00,56.1,54.0,29.75,West,260,0.0,1.0,91,0.00,,,0.00,weatherlink.com 1.10,2013-06-24 10:58:00,
2013-06-24 04:13:00,56.0,54.0,29.75,WSW,239,0.0,2.0,91,0.00,,,0.00,weatherlink.com 1.10,2013-06-24 11:13:00,
2013-06-24 04:28:00,56.0,54.0,29.76,WSW,239,0.0,1.0,91,0.00,,,0.00,weatherlink.com 1.10,2013-06-24 11:28:00,
2013-06-24 04:43:00,55.8,53.0,29.76,SW,236,0.0,1.0,91,0.00,,,0.00,weatherlink.com 1.10,2013-06-24 11:43:00,
2013-06-24 04:58:00,55.6,53.0,29.76,SW,230,0.0,0.0,92,0.00,,,0.00,weatherlink.com 1.10,2013-06-24 11:58:00,
2013-06-24 05:13:00,55.4,53.0,29.77,SW,230,0.0,0.0,92,0.00,,,0.00,weatherlink.com 1.10,2013-06-24 12:13:00,
2013-06-24 05:28:00,55.1,53.0,29.77,SW,230,0.0,0.0,93,0.00,,,0.00,weatherlink.com 1.10,2013-06-24 12:28:00,
2013-06-24 05:43:00,55.0,53.0,29.77,SW,230,0.0,0.0,93,0.00,,,0.00,weatherlink.com 1.10,2013-06-24 12:43:00,
2013-06-24 05:58:00,55.0,53.0,29.77,SW,230,0.0,0.0,93,0.00,,,0.00,weatherlink.com 1.10,2013-06-24 12:58:00,
2013-06-24 06:13:00,55.1,53.0,29.78,SW,230,0.0,1.0,93,0.00,,,0.00,weatherlink.com 1.10,2013-06-24 13:13:00,
2013-06-24 06:43:00,55.5,54.0,29.78,SW,232,0.0,0.0,93,0.00,,,0.00,weatherlink.com 1.10,2013-06-24 13:43:00,
2013-06-24 06:58:00,55.8,54.0,29.78,SW,232,0.0,0.0,93,0.00,,,0.00,weatherlink.com 1.10,2013-06-24 13:58:00,
2013-06-24 07:28:00,56.6,55.0,29.78,SW,232,0.0,0.0,94,0.00,,,0.00,weatherlink.com 1.10,2013-06-24 14:28:00,
2013-06-24 07:43:00,56.8,55.0,29.79,SW,232,0.0,0.0,93,0.00,,,0.00,weatherlink.com 1.10,2013-06-24 14:43:00,
2013-06-24 07:58:00,57.1,55.0,29.79,SW,227,0.0,1.0,91,0.00,,,0.00,weatherlink.com 1.10,2013-06-24 14:58:00,
2013-06-24 08:13:00,57.6,55.0,29.79,SW,227,0.0,0.0,91,0.00,,,0.00,weatherlink.com 1.10,2013-06-24 15:13:00,
2013-06-24 08:28:00,58.0,55.0,29.80,West,269,0.0,1.0,89,0.00,,,0.00,weatherlink.com 1.10,2013-06-24 15:28:00,
2013-06-24 08:43:00,58.6,56.0,29.80,West,269,0.0,0.0,90,0.00,,,0.00,weatherlink.com 1.10,2013-06-24 15:43:00,
2013-06-24 08:58:00,59.0,56.0,29.80,SSE,152,0.0,2.0,89,0.00,,,0.00,weatherlink.com 1.10,2013-06-24 15:58:00,
2013-06-24 09:28:00,59.9,56.0,29.82,SW,236,1.0,3.0,86,0.00,,,0.00,weatherlink.com 1.10,2013-06-24 16:28:00,
2013-06-24 09:43:00,60.2,56.0,29.83,WSW,250,0.0,3.0,86,0.00,,,0.00,weatherlink.com 1.10,2013-06-24 16:43:00,
2013-06-24 10:29:00,60.5,55.0,29.82,WSW,244,0.0,4.0,83,0.00,,,0.00,weatherlink.com 1.10,2013-06-24 17:29:00,
2013-06-24 10:44:00,60.7,57.0,29.83,WSW,242,0.0,1.0,86,0.00,,,0.00,weatherlink.com 1.10,2013-06-24 17:44:00,
2013-06-24 11:14:00,60.2,56.0,29.84,SSE,158,0.0,4.0,86,0.00,,,0.00,weatherlink.com 1.10,2013-06-24 18:14:00,
2013-06-24 11:29:00,60.2,56.0,29.84,WSW,238,0.0,4.0,87,0.00,,,0.00,weatherlink.com 1.10,2013-06-24 18:29:00,
2013-06-24 11:44:00,60.2,57.0,29.84,WSW,252,2.0,5.0,88,0.00,,,0.00,weatherlink.com 1.10,2013-06-24 18:44:00,
2013-06-24 11:59:00,60.8,57.0,29.84,SW,219,0.0,4.0,87,0.01,,,0.01,weatherlink.com 1.10,2013-06-24 18:59:00,
2013-06-24 12:14:00,61.1,57.0,29.84,South,178,1.0,6.0,87,0.01,,,0.01,weatherlink.com 1.10,2013-06-24 19:14:00,
2013-06-24 12:29:00,60.5,57.0,29.84,WSW,243,1.0,3.0,87,0.01,,,0.01,weatherlink.com 1.10,2013-06-24 19:29:00,
2013-06-24 12:44:00,60.0,57.0,29.84,West,259,0.0,3.0,89,0.01,,,0.01,weatherlink.com 1.10,2013-06-24 19:44:00,
2013-06-24 12:59:00,59.6,56.0,29.84,WSW,257,4.0,6.0,89,0.00,,,0.01,weatherlink.com 1.10,2013-06-24 19:59:00,
2013-06-24 13:14:00,59.8,57.0,29.84,West,268,0.0,1.0,90,0.00,,,0.01,weatherlink.com 1.10,2013-06-24 20:14:00,
2013-06-24 13:29:00,60.2,57.0,29.84,WSW,257,0.0,3.0,89,0.00,,,0.01,weatherlink.com 1.10,2013-06-24 20:29:00,
2013-06-24 13:44:00,60.3,57.0,29.85,WSW,240,0.0,5.0,89,0.01,,,0.02,weatherlink.com 1.10,2013-06-24 20:44:00,
2013-06-24 13:59:00,60.4,57.0,29.85,WSW,257,2.0,3.0,89,0.01,,,0.02,weatherlink.com 1.10,2013-06-24 20:59:00,
2013-06-24 14:14:00,60.8,57.0,29.84,WSW,258,0.0,2.0,87,0.01,,,0.02,weatherlink.com 1.10,2013-06-24 21:14:00,
2013-06-24 14:59:00,61.0,57.0,29.85,WNW,283,0.0,3.0,87,0.00,,,0.02,weatherlink.com 1.10,2013-06-24 21:59:00,
2013-06-24 15:14:00,60.9,57.0,29.85,West,261,2.0,4.0,87,0.00,,,0.02,weatherlink.com 1.10,2013-06-24 22:14:00,
2013-06-24 15:29:00,61.3,57.0,29.84,WSW,258,2.0,3.0,87,0.00,,,0.02,weatherlink.com 1.10,2013-06-24 22:29:00,
2013-06-24 15:44:00,61.2,57.0,29.85,WSW,243,1.0,5.0,87,0.00,,,0.02,weatherlink.com 1.10,2013-06-24 22:44:00,
2013-06-24 15:59:00,60.0,56.0,29.85,WNW,284,0.0,7.0,87,0.00,,,0.02,weatherlink.com 1.10,2013-06-24 22:59:00,
2013-06-24 16:14:00,59.0,56.0,29.85,NW,321,0.0,4.0,90,0.00,,,0.02,weatherlink.com 1.10,2013-06-24 23:14:00,
2013-06-24 16:29:00,58.9,56.0,29.85,WNW,290,0.0,3.0,91,0.00,,,0.02,weatherlink.com 1.10,2013-06-24 23:29:00,
2013-06-24 16:59:00,59.4,57.0,29.85,WSW,245,0.0,3.0,90,0.01,,,0.03,weatherlink.com 1.10,2013-06-24 23:59:00,
2013-06-24 17:29:00,58.6,56.0,29.85,WNW,301,0.0,2.0,91,0.01,,,0.03,weatherlink.com 1.10,2013-06-25 00:29:00,
2013-06-24 17:44:00,58.8,57.0,29.84,WNW,290,0.0,3.0,92,0.00,,,0.03,weatherlink.com 1.10,2013-06-25 00:44:00,
2013-06-24 18:44:00,58.8,57.0,29.84,WNW,288,0.0,2.0,92,0.00,,,0.03,weatherlink.com 1.10,2013-06-25 01:44:00,
2013-06-24 18:59:00,58.2,56.0,29.84,WNW,288,0.0,1.0,92,0.00,,,0.03,weatherlink.com 1.10,2013-06-25 01:59:00,
2013-06-24 19:14:00,58.1,56.0,29.85,WNW,288,0.0,1.0,93,0.00,,,0.03,weatherlink.com 1.10,2013-06-25 02:14:00,
2013-06-24 19:29:00,57.7,56.0,29.84,WNW,288,0.0,1.0,93,0.00,,,0.03,weatherlink.com 1.10,2013-06-25 02:29:00,
2013-06-24 19:44:00,57.7,56.0,29.85,WNW,288,0.0,0.0,93,0.00,,,0.03,weatherlink.com 1.10,2013-06-25 02:44:00,
2013-06-24 20:14:00,57.6,56.0,29.84,WNW,288,0.0,0.0,94,0.01,,,0.04,weatherlink.com 1.10,2013-06-25 03:14:00,
2013-06-24 20:29:00,57.6,56.0,29.85,WNW,288,0.0,0.0,94,0.01,,,0.04,weatherlink.com 1.10,2013-06-25 03:29:00,
2013-06-24 20:59:00,57.6,56.0,29.85,WNW,287,0.0,1.0,94,0.00,,,0.04,weatherlink.com 1.10,2013-06-25 03:59:00,
2013-06-24 21:14:00,57.5,56.0,29.85,WNW,287,0.0,1.0,94,0.00,,,0.04,weatherlink.com 1.10,2013-06-25 04:14:00,
2013-06-24 21:29:00,57.4,56.0,29.85,WNW,287,0.0,0.0,94,0.00,,,0.04,weatherlink.com 1.10,2013-06-25 04:29:00,
2013-06-24 21:44:00,57.4,56.0,29.85,WNW,287,0.0,0.0,94,0.00,,,0.04,weatherlink.com 1.10,2013-06-25 04:44:00,
2013-06-24 21:59:00,57.5,56.0,29.86,WNW,287,0.0,0.0,94,0.00,,,0.04,weatherlink.com 1.10,2013-06-25 04:59:00,
2013-06-24 22:14:00,57.5,56.0,29.86,SE,136,0.0,1.0,95,0.00,,,0.04,weatherlink.com 1.10,2013-06-25 05:14:00,
2013-06-24 22:29:00,57.6,56.0,29.86,SE,136,0.0,1.0,95,0.00,,,0.04,weatherlink.com 1.10,2013-06-25 05:29:00,
2013-06-24 22:44:00,57.5,56.0,29.86,SE,136,0.0,0.0,95,0.00,,,0.04,weatherlink.com 1.10,2013-06-25 05:44:00,
2013-06-24 22:59:00,57.6,56.0,29.86,SE,136,0.0,0.0,95,0.00,,,0.04,weatherlink.com 1.10,2013-06-25 05:59:00,
2013-06-24 23:14:00,57.7,56.0,29.85,SE,136,0.0,0.0,95,0.00,,,0.04,weatherlink.com 1.10,2013-06-25 06:14:00,
2013-06-24 23:29:00,57.7,56.0,29.85,SE,143,0.0,0.0,95,0.00,,,0.04,weatherlink.com 1.10,2013-06-25 06:29:00,
2013-06-24 23:44:00,57.9,57.0,29.84,SW,215,0.0,1.0,95,0.00,,,0.04,weatherlink.com 1.10,2013-06-25 06:44:00,
2013-06-24 23:59:00,58.0,57.0,29.84,SSW,213,0.0,0.0,95,0.00,,,0.00,weatherlink.com 1.10,2013-06-25 06:59:00,